Location: Staunton
(38.1490°N, 79.0720°W)
Time: 06:08:24
(UTC-04:00)

ISS - Pass Details

Date: 24 May 2018
Orbit: 402 x 407 km, 51.6° (Epoch: 24 May)

Event Time Altitude Azimuth Distance (km) Brightness Sun altitude
Rises 21:24:23 0° 255° (WSW) 2,311 0.6 -10.2°
Reaches altitude 10° 21:26:39 10° 268° (W) 1,454 -0.2 -10.6°
Maximum altitude 21:29:30 28° 329° (NNW) 798 -1.5 -11.0°
Drops below altitude 10° 21:32:23 10° 31° (NNE) 1,457 -0.9 -11.5°
Sets 21:34:39 0° 44° (NE) 2,318 0.0 -11.8°
